San Carlos, CA

11:45 AM PST on December 05, 2016 (GMT -0800)
San Carlos

Weather History for KSQL - May, 2013

Change the Weather History Date:

Thursday, May 9, 2013

  Actual Average Record
Temperature  
Mean Temperature 60 °F -  
Max Temperature 66 °F 72 °F 92 °F (1993)
Min Temperature 53 °F 47 °F 40 °F (1950)
Degree Days  
Heating Degree Days 6    
Growing Degree Days 10 (Base 50)    
Moisture  
Dew Point 48 °F    
Average Humidity 76    
Maximum Humidity 82    
Minimum Humidity 52    
Precipitation  
Precipitation 0.00 in - - ()
Sea Level Pressure  
Sea Level Pressure 30.16 in    
Wind  
Wind Speed 7 mph (West)    
Max Wind Speed 17 mph    
Max Gust Speed -    
Visibility 10 miles    
Events      
Averages and records for this station are not official NWS values.
T = Trace of Precipitation, MM = Missing Value Source: NWS Daily Summary

Daily Weather History Graph

Daily Weather History Graph

Search for Another Location

Airport or City:

Trip Planner

Search our weather history database for the weather conditions in past years. The results will help you decide how hot, cold, wet, or windy it might be!

Date:

Astronomy

May. 09, 2013 Rise Set
Actual Time 6:04 AM PDT 8:06 PM PDT
Civil Twilight 5:36 AM PDT 8:35 PM PDT
Nautical Twilight 5:01 AM PDT 9:10 PM PDT
Astronomical Twilight 4:23 AM PDT 9:48 PM PDT
Moon 5:52 AM PDT (5/9) 8:06 PM PDT (5/9)
Length of Visible Light 14h 59m
Length of Day
14h 01m
Waning Crescent, 0% of the Moon is Illuminated
May 9
Waning Crescent
May 9
New
May 17
First Quarter
May 24
Full
May 31
Last Quarter

Hourly Weather History & Observations

Time (PDT) Temp. Dew Point Humidity Pressure Visibility Wind Dir Wind Speed Gust Speed Precip Events Conditions
12:15 AM 53.6 °F 48.2 °F 82% 30.17 in 10.0 mi West 6.9 mph - N/A   Overcast
12:35 AM 53.6 °F 48.2 °F 82% 30.18 in 10.0 mi WSW 5.8 mph - N/A   Overcast
12:55 AM 53.6 °F 48.2 °F 82% 30.18 in 10.0 mi WNW 4.6 mph - N/A   Overcast
1:15 AM 53.6 °F 48.2 °F 82% 30.18 in 10.0 mi West 4.6 mph - N/A   Overcast
1:35 AM 53.6 °F 48.2 °F 82% 30.17 in 10.0 mi West 5.8 mph - N/A   Overcast
1:55 AM 53.6 °F 48.2 °F 82% 30.16 in 10.0 mi West 5.8 mph - N/A   Overcast
2:15 AM 53.6 °F 48.2 °F 82% 30.17 in 10.0 mi NW 6.9 mph - N/A   Overcast
2:35 AM 53.6 °F 48.2 °F 82% 30.16 in 10.0 mi West 5.8 mph - N/A   Overcast
2:55 AM 53.6 °F 48.2 °F 82% 30.16 in 10.0 mi West 6.9 mph - N/A   Overcast
3:15 AM 53.6 °F 48.2 °F 82% 30.15 in 10.0 mi West 3.5 mph - N/A   Overcast
3:35 AM 53.6 °F 48.2 °F 82% 30.15 in 10.0 mi West 6.9 mph - N/A   Overcast
3:55 AM 53.6 °F 48.2 °F 82% 30.15 in 10.0 mi West 5.8 mph - N/A   Overcast
4:15 AM 53.6 °F 48.2 °F 82% 30.15 in 10.0 mi WSW 6.9 mph - N/A   Overcast
4:35 AM 53.6 °F 48.2 °F 82% 30.15 in 10.0 mi West 5.8 mph - N/A   Overcast
4:55 AM 53.6 °F 48.2 °F 82% 30.15 in 10.0 mi West 5.8 mph - N/A   Overcast
5:15 AM 53.6 °F 48.2 °F 82% 30.14 in 10.0 mi WSW 6.9 mph - N/A   Overcast
5:35 AM 53.6 °F 48.2 °F 82% 30.15 in 10.0 mi WSW 6.9 mph - N/A   Overcast
5:55 AM 53.6 °F 48.2 °F 82% 30.15 in 10.0 mi WSW 5.8 mph - N/A   Overcast
6:15 AM 53.6 °F 48.2 °F 82% 30.15 in 10.0 mi WNW 6.9 mph - N/A   Overcast
6:35 AM 53.6 °F 48.2 °F 82% 30.16 in 10.0 mi WNW 5.8 mph - N/A   Overcast
6:47 AM 53.6 °F 46.4 °F 77% 30.16 in 10.0 mi West 5.8 mph - N/A   Overcast
6:55 AM 53.6 °F 48.2 °F 82% 30.16 in 10.0 mi West 4.6 mph - N/A   Overcast
8:47 AM 53.6 °F 46.4 °F 77% 30.18 in 10.0 mi WSW 5.8 mph - N/A   Mostly Cloudy
10:47 AM 62.6 °F 48.2 °F 59% 30.18 in 10.0 mi WSW 9.2 mph - N/A   Scattered Clouds
11:47 AM 64.4 °F 50.0 °F 59% 30.17 in 10.0 mi NW 9.2 mph - N/A   Partly Cloudy
12:50 PM 66.2 °F 50.0 °F 56% 30.16 in 10.0 mi West 9.2 mph - N/A   Partly Cloudy
1:49 PM 66.2 °F 48.2 °F 52% 30.16 in 10.0 mi West 13.8 mph - N/A   Partly Cloudy
2:47 PM 64.4 °F 48.2 °F 56% 30.16 in 10.0 mi West 11.5 mph - N/A   Partly Cloudy
3:50 PM 64.4 °F 50.0 °F 59% 30.13 in 10.0 mi WSW 13.8 mph - N/A   Scattered Clouds
4:49 PM 62.6 °F 48.2 °F 59% 30.12 in 10.0 mi West 15.0 mph - N/A   Scattered Clouds
5:47 PM 62.6 °F 48.2 °F 59% 30.11 in 10.0 mi West 17.3 mph - N/A   Scattered Clouds
7:59 PM 55.4 °F 50.0 °F 82% 30.17 in 10.0 mi West 17.3 mph - N/A   Mostly Cloudy
8:55 PM 53.6 °F 48.2 °F 82% 30.18 in 10.0 mi West 15.0 mph - N/A   Mostly Cloudy
9:15 PM - - N/A% - - North - - N/A   Unknown
9:35 PM - - N/A% - - North - - N/A   Unknown
9:55 PM - - N/A% - - North - - N/A   Unknown
10:15 PM - - N/A% - - North - - N/A   Unknown
10:55 PM - - N/A% - - North - - N/A   Unknown
11:15 PM - - N/A% - - North - - N/A   Unknown
11:35 PM - - N/A% - - North - - N/A   Unknown
11:55 PM - - N/A% - - North - - N/A   Unknown